Change the Weather History Date:

Wednesday, June 20, 2012

  Actual Average Record
Temperature  
Mean Temperature 78 °F -  
Max Temperature 82 °F 81 °F 91 °F (1986)
Min Temperature 73 °F 72 °F 68 °F (1991)
Cooling Degree Days 12    
Growing Degree Days 28 (Base 50)    
Moisture  
Dew Point 68 °F    
Average Humidity 76    
Maximum Humidity 91    
Minimum Humidity 65    
Precipitation  
Precipitation 0.15 in - - ()
Sea Level Pressure  
Sea Level Pressure 29.96 in    
Wind  
Wind Speed 7 mph (SE)    
Max Wind Speed 13 mph    
Max Gust Speed -    
Visibility 10 miles    
Events Rain    
Averages and records for this station are not official NWS values.
T = Trace of Precipitation, MM = Missing Value Source: NWS Daily Summary

Daily Weather History Graph

Daily Weather History Graph

Search for Another Location

Airport or City:

Trip Planner

Search our weather history database for the weather conditions in past years. The results will help you decide how hot, cold, wet, or windy it might be!

Date:

Astronomy

Jun. 20, 2012 Rise Set
Actual Time 5:46 AM HST 7:05 PM HST
Civil Twilight 5:21 AM HST 7:30 PM HST
Nautical Twilight 4:52 AM HST 7:59 PM HST
Astronomical Twilight 4:22 AM HST 8:29 PM HST
Moon 6:47 AM HST (6/20) 8:10 PM HST (6/20)
Length of Visible Light 14h 08m
Length of Day
13h 19m
New Moon, 2% of the Moon is Illuminated
Jun 20
New Moon
Jun 26
First Quarter
Jul 3
Full
Jul 10
Last Quarter
Jul 18
New

Hourly Weather History & Observations

Time (HST) Temp. Heat Index Dew Point Humidity Pressure Visibility Wind Dir Wind Speed Gust Speed Precip Events Conditions
12:53 AM 75.9 °F - 66.9 °F 74% 29.95 in 10.0 mi WSW 5.8 mph - N/A   Overcast
1:53 AM 75.0 °F - 66.0 °F 73% 29.94 in 10.0 mi ESE 3.5 mph - N/A   Mostly Cloudy
2:53 AM 73.9 °F - 66.0 °F 76% 29.92 in 10.0 mi SE 5.8 mph - N/A   Partly Cloudy
3:53 AM 73.9 °F - 64.9 °F 73% 29.92 in 10.0 mi ESE 5.8 mph - N/A   Clear
4:53 AM 73.9 °F - 64.0 °F 71% 29.93 in 10.0 mi East 6.9 mph - N/A   Mostly Cloudy
5:53 AM 73.9 °F - 64.9 °F 73% 29.94 in 10.0 mi SE 8.1 mph - N/A   Clear
6:53 AM 75.9 °F - 64.9 °F 69% 29.96 in 10.0 mi ESE 5.8 mph - N/A   Clear
7:53 AM 78.1 °F - 66.9 °F 68% 29.98 in 10.0 mi SE 8.1 mph - N/A   Overcast
8:53 AM 79.0 °F - 66.9 °F 66% 29.98 in 10.0 mi South 8.1 mph - N/A   Mostly Cloudy
9:53 AM 81.0 °F 83.8 °F 68.0 °F 65% 29.98 in 10.0 mi South 9.2 mph - N/A   Partly Cloudy
10:53 AM 82.0 °F 85.5 °F 69.1 °F 65% 29.99 in 10.0 mi WSW 12.7 mph - N/A   Partly Cloudy
11:53 AM 81.0 °F 84.4 °F 70.0 °F 69% 29.98 in 10.0 mi West 9.2 mph - N/A   Partly Cloudy
12:53 PM 82.0 °F 85.5 °F 69.1 °F 65% 29.97 in 10.0 mi West 11.5 mph - N/A   Scattered Clouds
1:53 PM 82.0 °F 85.5 °F 69.1 °F 65% 29.96 in 10.0 mi West 6.9 mph - N/A   Overcast
2:53 PM 79.0 °F - 68.0 °F 69% 29.95 in 10.0 mi Variable 4.6 mph - N/A   Overcast
3:53 PM 80.1 °F 82.9 °F 69.1 °F 69% 29.94 in 10.0 mi SSW 5.8 mph - N/A   Overcast
4:53 PM 79.0 °F - 69.1 °F 72% 29.94 in 10.0 mi South 9.2 mph - N/A   Overcast
5:16 PM 78.8 °F - 69.8 °F 74% 29.95 in 10.0 mi East 9.2 mph - N/A   Overcast
5:39 PM 75.2 °F - 71.6 °F 89% 29.95 in 9.0 mi East 10.4 mph - N/A Rain Light Rain
5:53 PM 75.9 °F - 72.0 °F 87% 29.95 in 10.0 mi ESE 9.2 mph - N/A   Overcast
6:53 PM 75.9 °F - 71.1 °F 85% 29.97 in 10.0 mi SE 5.8 mph - N/A   Overcast
7:53 PM 73.9 °F - 71.1 °F 91% 29.98 in 10.0 mi ESE 5.8 mph - 0.03 in Rain Light Rain
8:53 PM 73.9 °F - 71.1 °F 91% 29.99 in 9.0 mi Calm Calm - 0.12 in Rain Light Rain
9:53 PM 73.9 °F - 69.1 °F 85% 30.00 in 10.0 mi North 5.8 mph - 0.00 in Rain Light Rain
10:27 PM 73.4 °F - 69.8 °F 88% 30.00 in 10.0 mi SE 4.6 mph - 0.00 in Rain Light Rain
10:53 PM 75.0 °F - 70.0 °F 84% 30.00 in 10.0 mi ESE 4.6 mph - 0.00 in   Overcast
11:53 PM 75.0 °F - 70.0 °F 84% 30.00 in 10.0 mi SE 6.9 mph - N/A   Overcast